7 * 24
多渠道服务支持
STARLINK-2148是美国太空探索技术公司(SpaceX)星链星座中的一颗卫星,于2021年3月4日发射入轨,属于Starlink Group V1-0任务批次,主要用于为全球提供高速互联网服务,星链系统通过大规模低轨卫星组网,可覆盖偏远地区,支持网络接入服务。
美国
(US)
| 数据来源 | 国际轨道数据 |
| 星历时间: | 2024-07-27T09:59:58+0800 轨道信息已过期667天 |
| 半长轴: | 6554.138km |
| 偏心率: | 0.00121 |
| 轨道倾角: | 53.020° |
| 近地点辐角 | 279.414° |
| 升交点赤经 | 64.164° |
| 平近点角 | 165.709° |
| 近地点: | 168.072km |
| 远地点: | 183.934km |
| 周期: | 88.010分钟 |
| 每日圈数: | 16.361739 |